Flag for France Weather past 2 weeks in Boulogne-Billancourt, France

Now
37 °F

Partly cloudy.


Feels Like: 30 °F
Forecast: 30 / 38 °F
Wind: 10 mph from Northwest

Location: Paris-Orly

Current Time: Feb 1, 2015 at 9:53:54 PM

Latest Report: Feb 1, 2015 at 9:00 PM


Visibility: N/A

Pressure: 29.62 "Hg

Humidity: 87%

Dew point: 34 °F

Location of Boulogne-BillancourtLocation

Historic Weather in Boulogne-Billancourt — Graph

°F

Boulogne-Billancourt temperature yesterday

Maximum temperature yesterday: 43 °F (at 12:30 PM)
Minimum temperature yesterday: 32 °F (at 8:30 AM)
Average temperature yesterday: 37 °F

Past Weeks' High & Low Weather Summary

 TemperatureHumidityPressure
High48 °F (Jan 26, 2:00 PM)100% (Jan 20, 11:30 AM)30.51 "Hg (Jan 20, 11:30 AM)
Low27 °F (Jan 25, 7:00 AM)57% (Jan 24, 3:00 PM)28.88 "Hg (Jan 29, 9:00 PM)
Average37 °F85%29.86 "Hg
* Reported Jan 17 8:00 PM — Feb 1 8:30 PM, Boulogne-Billancourt, Weather by CustomWeather, © 2014

Note: Actual official high and low records may vary slightly from our data, if they occured in-between our weather recording intervals... More about our weather records

Advertising

Boulogne-Billancourt weather history for previous 24 hours

 ConditionsComfort  
Time TempWeatherWind HumidityBarometerVisibility
8:30 PM
Feb 1
37 °FPartly cloudy.9 mph93%29.59 "HgN/A
8:00 PM39 °FPartly cloudy.8 mph81%29.59 "HgN/A
7:30 PM39 °FPartly cloudy.10 mph81%29.59 "HgN/A
7:00 PM39 °FPassing clouds.14 mph81%29.56 "HgN/A
6:30 PM39 °FPassing clouds.14 mph87%29.56 "HgN/A
6:00 PM39 °FPassing clouds.12 mph87%29.53 "HgN/A
5:30 PM39 °FLight rain. Partly sunny.13 mph87%29.53 "HgN/A
5:00 PM39 °FLight rain. Partly sunny.12 mph87%29.53 "HgN/A
4:30 PM39 °FBroken clouds.14 mph81%29.50 "HgN/A
4:00 PM39 °FBroken clouds.14 mph87%29.50 "HgN/A
3:30 PM39 °FLight rain. Partly sunny.13 mph87%29.50 "HgN/A
3:00 PM39 °FLight rain. Partly sunny.10 mph87%29.47 "HgN/A
2:30 PM39 °FLight rain. Partly sunny.15 mph87%29.47 "HgN/A
2:00 PM39 °FLight rain. Partly sunny.12 mph87%29.47 "HgN/A
1:30 PM39 °FSprinkles. Partly sunny.13 mph81%29.47 "HgN/A
1:00 PM39 °FSprinkles. Partly sunny.13 mph81%29.47 "HgN/A
12:30 PM39 °FPartly sunny.12 mph81%29.47 "HgN/A
12:00 PM39 °FBroken clouds.12 mph81%29.47 "HgN/A
11:30 AM37 °FBroken clouds.10 mph87%29.47 "HgN/A
11:00 AM37 °FBroken clouds.10 mph87%29.45 "HgN/A
10:30 AM37 °FPartly sunny.10 mph87%29.45 "HgN/A
10:00 AM36 °FBroken clouds.10 mph87%29.42 "HgN/A
9:30 AM36 °FPartly sunny.10 mph87%29.42 "HgN/A
9:00 AM34 °FScattered clouds.8 mph93%29.42 "HgN/A
8:30 AM36 °FPassing clouds.10 mph81%29.39 "HgN/A
8:00 AM36 °FPassing clouds.8 mph81%29.39 "HgN/A
7:30 AM36 °FPassing clouds.10 mph81%29.39 "HgN/A
7:00 AM36 °FPassing clouds.12 mph81%29.36 "HgN/A
6:30 AM37 °FLight rain. Partly cloudy.10 mph81%29.36 "HgN/A
6:00 AM37 °FPassing clouds.10 mph81%29.36 "HgN/A
5:30 AM37 °FPassing clouds.13 mph81%29.36 "HgN/A
5:00 AM37 °FPassing clouds.10 mph81%29.33 "HgN/A
4:30 AM37 °FPassing clouds.10 mph81%29.33 "HgN/A
4:00 AM36 °FLight rain. Partly cloudy.8 mph93%29.33 "HgN/A
3:30 AM36 °FLight rain. Passing clouds.12 mph93%29.33 "HgN/A
3:00 AM37 °FLight rain. Passing clouds.15 mph87%29.33 "HgN/A
2:30 AM37 °FPassing clouds.15 mph87%29.30 "HgN/A
2:00 AM37 °FLight rain. Passing clouds.17 mph87%29.30 "HgN/A
1:30 AM37 °FLight rain. Passing clouds.16 mph87%29.27 "HgN/A
1:00 AM37 °FLight rain. Passing clouds.13 mph87%29.27 "HgN/A
12:30 AM37 °FLight rain. Passing clouds.13 mph87%29.27 "HgN/A
12:00 AM37 °FLight rain. Passing clouds.14 mph87%29.27 "HgN/A
11:30 PM
Jan 31
37 °FLight rain. Passing clouds.12 mph93%29.24 "HgN/A
11:00 PM37 °FLight rain. Partly cloudy.13 mph87%29.24 "HgN/A
10:00 PM37 °FPassing clouds.10 mph87%29.21 "HgN/A
9:30 PM36 °FPassing clouds.8 mph93%29.21 "HgN/A
9:00 PM34 °FPassing clouds.6 mph93%29.21 "HgN/A
Weather by CustomWeather, © 2014

See weather overviewHow to use our weather pages